This demonstration page uses our WeatherBlox Daily Observations layout. Learn more.

Left ArrowRight Arrow

44.8408, -93.29828

Hourly Observations for November 7, 2019

Temp ( °F °C ) Dew Point ( °F °C ) Humidity (%) Winds ( mph kmh ) Pressure ( in mb ) Visibility ( mi km ) Precip ( " mm )
12:53 am 00:53 Clear 19 -7.2 5 -15 54 54 NNW 10 17 30.60 1036 10 16 0.00 0.00
1:53 am 01:53 Clear 18 -7.8 6 -14.4 59 59 NW 8 13 30.59 1036 10 16 0.00 0.00
2:53 am 02:53 Clear 17 -8.3 6 -14.4 62 62 NW 8 13 30.60 1036 10 16 0.00 0.00
3:53 am 03:53 Clear 17 -8.3 6 -14.4 62 62 NW 9 15 30.59 1036 10 16 0.00 0.00
4:53 am 04:53 Clear 16 -8.9 6 -14.4 65 65 W 6 9 30.60 1036 10 16 0.00 0.00
5:53 am 05:53 Mostly Clear 15 -9.4 7 -13.9 70 70 W 5 7 30.61 1037 10 16 0.00 0.00
6:53 am 06:53 Mostly Cloudy 17 -8.3 8 -13.3 68 68 WNW 6 9 30.60 1036 10 16 0.00 0.00
7:53 am 07:53 Mostly Cloudy 19 -7.2 8 -13.3 62 62 W 6 9 30.61 1037 10 16 0.00 0.00
8:53 am 08:53 Mostly Cloudy 20 -6.7 8 -13.3 60 60 W 6 9 30.61 1037 10 16 0.00 0.00
9:53 am 09:53 Mostly Cloudy 21 -6.1 8 -13.3 57 57 WNW 7 11 30.61 1037 10 16 0.00 0.00
10:20 am 10:20 Cloudy with Light Snow 21 -6.1 9 -12.8 59 59 W 3 6 30.63 1037 9 14 0.00 0.00
10:33 am 10:33 Mostly Cloudy 22 -5.6 8 -13.3 55 55 WNW 7 11 30.63 1037 9 14 0.00 0.00
10:53 am 10:53 Mostly Cloudy 22 -5.6 7 -13.9 52 52 WNW 10 17 30.60 1036 10 16 0.00 0.00
11:53 am 11:53 Mostly Cloudy 23 -5 6 -14.4 48 48 WNW 8 13 30.57 1035 10 16 0.00 0.00
12:53 pm 12:53 Mostly Cloudy 26 -3.3 8 -13.3 46 46 NW 12 19 30.53 1034 10 16 0.00 0.00
1:53 pm 13:53 Partly Cloudy 26 -3.3 6 -14.4 42 42 NW 15 24 30.53 1034 10 16 0.00 0.00
2:53 pm 14:53 Mostly Sunny 26 -3.3 5 -15 40 40 W 10 17 30.52 1034 10 16 0.00 0.00
3:53 pm 15:53 Mostly Sunny 26 -3.3 5 -15 40 40 WNW 12 19 30.52 1034 10 16 0.00 0.00
4:53 pm 16:53 Mostly Sunny 24 -4.4 7 -13.9 48 48 NW 9 15 30.53 1034 10 16 0.00 0.00
5:53 pm 17:53 Mostly Clear 22 -5.6 7 -13.9 52 52 NW 8 13 30.55 1035 10 16 0.00 0.00
6:53 pm 18:53 Mostly Clear 22 -5.6 8 -13.3 55 55 VRB 5 7 30.55 1035 10 16 0.00 0.00
7:53 pm 19:53 Mostly Clear 22 -5.6 9 -12.8 57 57 NNW 3 6 30.55 1035 10 16 0.00 0.00
8:53 pm 20:53 Clear 22 -5.6 8 -13.3 55 55 Calm 30.55 1035 10 16 0.00 0.00
9:53 pm 21:53 Clear 20 -6.7 10 -12.2 65 65 SW 6 9 30.55 1035 10 16 0.00 0.00
10:53 pm 22:53 Clear 19 -7.2 11 -11.7 71 71 SW 3 6 30.54 1034 10 16 0.00 0.00
11:53 pm 23:53 Clear 18 -7.8 11 -11.7 74 74 Calm 30.54 1034 10 16 0.00 0.00

Powered by AerisWeather